Regional Weather Roundup
Issued by NWS

Home | Current Version | Previous Version | Graphics & Text | Print | Product List | Glossary On
Versions: 1 2 3 4 5 6 7 8 9 10 11 12 13 14 15 16 17 18 19 20 21 22 23 24 25 26 27 28 29 30 31 32 33 34 35 36 37 38 39 40 41 42 43 44 45 46 47 48 49 50
000
ASUS43 KIND 251759
RWRIN

WEATHER ROUNDUP FOR INDIANA
NATIONAL WEATHER SERVICE INDIANAPOLIS IN
100 PM EST SAT FEB 25 2017

NOTE: "FAIR" INDICATES FEW OR NO CLOUDS BELOW 12,000 FEET WITH NO
SIGNIFICANT WEATHER AND/OR OBSTRUCTIONS TO VISIBILITY.

* - STATION DOES NOT REPORT WEATHER SUCH AS PRECIPITATION OR FOG.

+ - STATION NOT QUALITY CONTROLLED BY THE NATIONAL WEATHER SERVICE.
    USE DATA WITH CAUTION...ESPECIALLY DEWPOINT AND RELATIVE
    HUMIDITY OBSERVATIONS.

INZ001>003-010>013-019-020-251900-
NORTHWEST INDIANA

CITY           SKY/WX    TMP DP  RH WIND       PRES   REMARKS
GARY /AIRPORT/ CLOUDY    27  12  54 W16G32    29.87R WCI  14
KNOX *+        CLOUDY    27  -2  28 W21       29.86R WCI  13
MICHIGAN CITY+ CLOUDY    27  18  69 W13G21    29.86R WCI  16
RENSSELAER +   FLURRIES  28  19  69 W15G23    29.89R WCI  17

$$

LMZ046-743>745-251900-
SOUTHERN LAKE MICHIGAN

STATION/POSITION TIME  TEMP    WIND        PRES    WAVE
                       AIR SEA DIR/SP/G            HT
                 (UTC) (F)     (DEG/KT/KT) (MB)    (FT)
BURNS HARBOR     1740   25     280/ 21/ 24 1011.5R
MICHIGAN CITY    1730   23     260/ 23/ 26   N/A

$$

INZ004-005-014>016-021>024-251900-
NORTH CENTRAL INDIANA

CITY           SKY/WX    TMP DP  RH WIND       PRES   REMARKS
ELKHART        LGT SNOW  25  19  80 W16       29.81R WCI  12
GOSHEN         CLOUDY    26  16  65 W18G30    29.80R WCI  13
6HR MIN TEMP:  26; 6HR MAX TEMP:  32; 6HR PCP: TRACE;

SOUTH BEND     CLOUDY    24  15  68 W16G28    29.82R WCI  11
6HR MIN TEMP:  23; 6HR MAX TEMP:  30; 6HR PCP: TRACE;


$$

INZ006>009-017-018-025>027-251900-
NORTHEAST INDIANA

CITY           SKY/WX    TMP DP  RH WIND       PRES   REMARKS
ANGOLA *+      CLOUDY    27  19  74 W14       29.74R WCI  15
FORT WAYNE     FLURRIES  28  19  69 W26G32    29.80R WCI  13
6HR MIN TEMP:  28; 6HR MAX TEMP:  34; 6HR PCP:  0.01;

KENDALLVILLE + FLURRIES  27  18  68 W15G24    29.77R WCI  15

$$

INZ028-029-035-036-043>045-051>053-251900-
WEST CENTRAL INDIANA

CITY           SKY/WX    TMP DP  RH WIND       PRES   REMARKS
LAFAYETTE      CLOUDY    26  18  71 W16G25    29.92R WCI  14
6HR MIN TEMP:  24; 6HR MAX TEMP:  30; 6HR PCP: TRACE;

TERRE HAUTE    CLOUDY    31  19  61 NW15      29.97S WCI  20
6HR MIN TEMP:  27; 6HR MAX TEMP:  31; 6HR PCP: TRACE;


$$

INZ030>032-037>040-046>048-054>057-064-065-251900-
CENTRAL INDIANA

CITY           SKY/WX    TMP DP  RH WIND       PRES   REMARKS
ANDERSON       CLOUDY    27  18  69 W17G35    29.88  WCI  14
COLUMBUS       PTSUNNY   30  18  59 W20G26    29.94R WCI  18
GREENWOOD *+   CLOUDY    29  18  62 W20G29    29.92R WCI  17
6HR MIN TEMP:  28; 6HR MAX TEMP:  33;

INDIANAPOLIS   FLURRIES  28  17  63 W25G33    29.92R WCI  13
6HR MIN TEMP:  27; 6HR MAX TEMP:  32; 6HR PCP: TRACE;

-EAGLE CREEK   CLOUDY    28  17  63 W18G25    29.91R WCI  15
6HR MIN TEMP:  27; 6HR MAX TEMP:  32; 6HR PCP: TRACE;

KOKOMO +       FLURRIES  27  19  72 W25       29.88R WCI  12
6HR MIN TEMP:  25; 6HR MAX TEMP:  32; 6HR PCP: TRACE;

MT COMFORT *+  CLOUDY    27  19  74 W22G33    29.90R WCI  12
SHELBYVILLE    CLOUDY    31  18  58 W23G30    29.90R WCI  18
6HR MIN TEMP:  30; 6HR MAX TEMP:  36; 6HR PCP: TRACE;


$$

INZ033-034-041-042-049-050-058-059-251900-
EAST CENTRAL INDIANA

CITY           SKY/WX    TMP DP  RH WIND       PRES   REMARKS
MUNCIE         CLOUDY    28  17  63 W21G37    29.85R WCI  15
6HR MIN TEMP:  28; 6HR MAX TEMP:  35; 6HR PCP: TRACE;


$$

INZ060-061-067>069-081>083-085>088-251900-
SOUTHWEST INDIANA

CITY           SKY/WX    TMP DP  RH WIND       PRES   REMARKS
EVANSVILLE     PTSUNNY   37  19  48 W12       30.04R
6HR MIN TEMP:  31; 6HR MAX TEMP:  38; 6HR PCP: TRACE;

HUNTINGBURG *+ CLOUDY    36  20  52 W18       30.01S
6HR MIN TEMP:  31; 6HR MAX TEMP:  36; 6HR PCP: TRACE;


$$

INZ062-063-066-070>080-084-089>092-251900-
SOUTH CENTRAL AND SOUTHEAST INDIANA

CITY           SKY/WX    TMP DP  RH WIND       PRES   REMARKS
BLOOMINGTON    CLOUDY    29  18  63 W16G26    29.94R WCI  17
6HR MIN TEMP:  27; 6HR MAX TEMP:  32; 6HR PCP:  0.02;

MADISON *+     CLOUDY    32  19  59 W18G25    29.96R WCI  20
SEYMOUR +      CLOUDY    37  19  48 W20G28    29.96R

$$





USA.gov is the U.S. government's official web portal to all federal, state and local government web resources and services.